TITAN 3C TRANSTAGE DEB

Satellite information

Favourite Embed

Satellite Type and Status

DEBRISIN ORBIT

Key statistics

Satellite TITAN 3C TRANSTAGE DEB at a glance.

Uptime

21930

Days in orbit

Revolutions

≈ 14.9

Per day

Orbit

LEO

Low Earth Orbit

Inclination

32.3

Latest

Satellite identification and parameters

Extended collection of information and parameters for TITAN 3C TRANSTAGE DEB.

Object identification

Identified? True

Debris? True

Object name: TITAN 3C TRANSTAGE DEB

International designator: 1965-082DU

Object number (NORAD): 1829

Object ID (CCSDS): 1829

Country: UNITED STATES OF AMERICA (US)

Current information (Y/N): Y

RCS size: SMALL

Orbital parameters

Period: 96.772 minutes

Inclination: 32.2893 deg

SMA: 6982.202 km

Apoapsis: 620.751 km

Periapsis: 587.382 km

RAAN: 271.414 deg

Eccentricy: 0.00238958

Argument of periapsis: 77.6229 deg

Mean anomaly: 282.71 deg

Mean motion: 14.88038583 rev/day

Mean motion (dot): 0.00004347 rev/day2

B* drag term: 0.00045683408 1/REarth

Two-line elements (TLE)

Creation date: Oct. 29, 2025, 7:31 p.m.

Reference frame: TEME

Reference center: EARTH

Epoch: Oct. 29, 2025, 5:22 a.m. UTC

TLE line 0: 0 TITAN 3C TRANSTAGE DEB

TLE line 1: 1 01829U 65082DU 25302.22425086 .00004347 00000-0 45683-3 0 9999

TLE line 2: 2 01829 32.2893 271.4140 0023896 77.6229 282.7100 14.88038583186079

Live tracking on map

Real-time ground track for satellite TITAN 3C TRANSTAGE DEB.

In-orbit conjunctions

A list of the most updated potential collisions computed for object TITAN 3C TRANSTAGE DEB.

Target Orbit TCA Probability of collision Miss distance Type
CZ-6A DEB SSO 2025-09-11 06:25:51 0.0001523135 74.0 (m) DEBRIS
COSMOS 886 DEB LEO 2024-11-11 03:58:33 0.0001197086 759.0 (m) DEBRIS

Associated space launch

The OV2 (Orbiting Vehicle 2) series satellites were originally built for project ARENTS (Advanced Research Environmental Test Satellite), which was intended to obtain supporting data for the Vela program. After the cancellation of the ARENTS program, the already built hardware was reused for OV2, a low-cost series of experimental satellites, which were to be launched for free on Titan-3C test flights to very different orbits.

TITAN 3C TRANSTAGE DEB was lifted into orbit during the mission ‘Titan IIIC | OV2-1’, on board a Titan IIIC space rocket.

The launch took place on Oct. 15, 1965, 5:23 p.m. from Space Launch Complex 40.

For more information about the launch, click the button.

Launch to space Titan IIIC | OV2-1
Titan IIIC | OV2-1

Agency: N/A

Status: Launch Successful

Launch date: Oct. 15, 1965, 5:23 p.m. UTC

Rocket: Titan IIIC

Launch pad: Space Launch Complex 40

Location: Cape Canaveral SFS, FL, USA

...

Latest news about this satellite

There are no fresh news available about this satellite. Check back as we update our databases every day.


Newsletter sign-up

Weekly statistics, charts and insights to help you stay on top of the space industry.